Time,TemperatureF,DewpointF,PressureIn,WindDirection,WindDirectionDegrees,WindSpeedMPH,WindSpeedGustMPH,Humidity,HourlyPrecipIn,Conditions,Clouds,dailyrainin,SolarRadiationWatts/m^2,SoftwareType,DateUTC
2013-06-02 00:00:00,72.3,69.8,29.88,NNW,344,1.0,4.0,92,0.00,,---,0.00,0.00,VWS V14.00,2013-06-02 05:00:00,
2013-06-02 00:02:00,72.3,69.8,29.88,NNW,333,0.0,1.0,92,0.00,,---,0.00,0.00,VWS V14.00,2013-06-02 05:02:00,
2013-06-02 00:06:00,72.4,69.9,29.88,NNW,334,1.0,1.0,92,0.00,,---,0.00,0.00,VWS V14.00,2013-06-02 05:06:00,
2013-06-02 00:10:00,72.4,69.9,29.88,NNW,335,2.0,3.0,92,0.00,,---,0.00,0.00,VWS V14.00,2013-06-02 05:10:00,
2013-06-02 00:14:00,72.4,69.9,29.89,NNW,335,0.0,4.0,92,0.00,,---,0.00,0.00,VWS V14.00,2013-06-02 05:14:00,
2013-06-02 00:18:00,72.4,70.3,29.89,NNW,335,5.0,5.0,93,0.00,,---,0.00,0.00,VWS V14.00,2013-06-02 05:18:00,
2013-06-02 00:22:00,72.5,70.4,29.89,NNW,335,0.0,5.0,93,0.00,,---,0.00,0.00,VWS V14.00,2013-06-02 05:22:00,
2013-06-02 00:26:00,72.5,70.4,29.89,NNW,335,0.0,5.0,93,0.00,,---,0.00,0.00,VWS V14.00,2013-06-02 05:26:00,
2013-06-02 00:30:00,72.5,70.4,29.90,NNW,335,0.0,5.0,93,0.00,,---,0.00,0.00,VWS V14.00,2013-06-02 05:30:00,
2013-06-02 00:34:00,72.6,70.5,29.90,NNW,335,2.0,2.0,93,0.00,,---,0.00,0.00,VWS V14.00,2013-06-02 05:34:00,
2013-06-02 00:38:00,72.7,70.6,29.90,NNW,336,4.0,4.0,93,0.00,,---,0.00,0.00,VWS V14.00,2013-06-02 05:38:00,
2013-06-02 00:42:00,72.8,70.7,29.90,NNW,337,0.0,4.0,93,0.00,,---,0.00,0.00,VWS V14.00,2013-06-02 05:42:00,
2013-06-02 00:46:00,72.9,70.8,29.90,SSE,156,0.0,4.0,93,0.00,,---,0.00,0.00,VWS V14.00,2013-06-02 05:46:00,
2013-06-02 00:50:00,73.0,70.5,29.90,SSE,157,0.0,4.0,92,0.00,,---,0.00,0.00,VWS V14.00,2013-06-02 05:50:00,
2013-06-02 00:55:00,73.1,70.6,29.90,NNE,28,0.0,4.0,92,0.00,,---,0.00,0.00,VWS V14.00,2013-06-02 05:55:00,
2013-06-02 00:59:00,73.2,70.4,29.92,East,80,0.0,4.0,91,0.00,,---,0.00,0.00,VWS V14.00,2013-06-02 05:59:00,
2013-06-02 01:00:00,73.3,70.5,29.92,East,80,0.0,4.0,91,0.00,,---,0.00,0.00,VWS V14.00,2013-06-02 06:00:00,
2013-06-02 01:03:00,73.3,70.5,29.92,East,80,0.0,2.0,91,0.00,,---,0.00,0.00,VWS V14.00,2013-06-02 06:03:00,
2013-06-02 01:07:00,73.1,70.3,29.92,ENE,74,0.0,3.0,91,0.00,,---,0.00,0.00,VWS V14.00,2013-06-02 06:07:00,
2013-06-02 01:11:00,73.1,70.3,29.92,ENE,64,0.0,3.0,91,0.00,,---,0.00,0.00,VWS V14.00,2013-06-02 06:11:00,
2013-06-02 01:15:00,73.2,70.4,29.93,ENE,63,0.0,3.0,91,0.00,,---,0.00,0.00,VWS V14.00,2013-06-02 06:15:00,
2013-06-02 01:19:00,73.3,70.5,29.93,ENE,62,0.0,3.0,91,0.00,,---,0.00,0.00,VWS V14.00,2013-06-02 06:19:00,
2013-06-02 01:23:00,73.3,70.5,29.93,NE,55,1.0,3.0,91,0.00,,---,0.00,0.00,VWS V14.00,2013-06-02 06:23:00,
2013-06-02 01:28:00,73.2,70.4,29.93,NE,51,0.0,3.0,91,0.00,,---,0.00,0.00,VWS V14.00,2013-06-02 06:28:00,
2013-06-02 01:30:00,73.1,70.3,29.92,NE,54,0.0,3.0,91,0.00,,---,0.00,0.00,VWS V14.00,2013-06-02 06:30:00,
2013-06-02 01:32:00,73.0,70.2,29.92,NE,54,0.0,0.0,91,0.00,,---,0.00,0.00,VWS V14.00,2013-06-02 06:32:00,
2013-06-02 01:36:00,73.0,70.2,29.92,NE,36,0.0,1.0,91,0.00,,---,0.00,0.00,VWS V14.00,2013-06-02 06:36:00,
2013-06-02 01:40:00,72.9,70.1,29.92,NE,35,0.0,1.0,91,0.00,,---,0.00,0.00,VWS V14.00,2013-06-02 06:40:00,
2013-06-02 01:44:00,72.9,70.1,29.92,North,350,0.0,3.0,91,0.00,,---,0.00,0.00,VWS V14.00,2013-06-02 06:44:00,
2013-06-02 01:48:00,72.9,70.1,29.92,NE,51,0.0,3.0,91,0.00,,---,0.00,0.00,VWS V14.00,2013-06-02 06:48:00,
2013-06-02 01:52:00,73.0,69.9,29.92,NE,51,0.0,3.0,90,0.00,,---,0.00,0.00,VWS V14.00,2013-06-02 06:52:00,
2013-06-02 01:56:00,73.0,69.9,29.92,NE,38,0.0,3.0,90,0.00,,---,0.00,0.00,VWS V14.00,2013-06-02 06:56:00,
2013-06-02 02:00:00,72.9,69.8,29.92,NE,38,0.0,3.0,90,0.00,,---,0.00,0.00,VWS V14.00,2013-06-02 07:00:00,
2013-06-02 02:04:00,72.9,69.8,29.92,NNE,25,0.0,2.0,90,0.00,,---,0.00,0.00,VWS V14.00,2013-06-02 07:04:00,
2013-06-02 02:08:00,72.8,69.7,29.92,NNE,24,1.0,2.0,90,0.00,,---,0.00,0.00,VWS V14.00,2013-06-02 07:08:00,
2013-06-02 02:12:00,72.8,69.7,29.92,NNE,24,0.0,2.0,90,0.00,,---,0.00,0.00,VWS V14.00,2013-06-02 07:12:00,
2013-06-02 02:16:00,72.7,69.6,29.93,NNE,24,0.0,2.0,90,0.00,,---,0.00,0.00,VWS V14.00,2013-06-02 07:16:00,
2013-06-02 02:20:00,72.7,69.9,29.93,NNE,24,0.0,2.0,91,0.00,,---,0.00,0.00,VWS V14.00,2013-06-02 07:20:00,
2013-06-02 02:24:00,72.6,69.5,29.93,NNE,25,0.0,2.0,90,0.00,,---,0.00,0.00,VWS V14.00,2013-06-02 07:24:00,
2013-06-02 02:29:00,72.6,69.5,29.93,NNE,25,0.0,2.0,90,0.00,,---,0.00,0.00,VWS V14.00,2013-06-02 07:29:00,
2013-06-02 02:30:00,72.6,69.5,29.91,NNE,25,0.0,2.0,90,0.00,,---,0.00,0.00,VWS V14.00,2013-06-02 07:30:00,
2013-06-02 02:33:00,72.7,69.6,29.91,NNE,30,0.0,2.0,90,0.00,,---,0.00,0.00,VWS V14.00,2013-06-02 07:33:00,
2013-06-02 02:37:00,72.7,69.6,29.91,NNE,30,0.0,2.0,90,0.00,,---,0.00,0.00,VWS V14.00,2013-06-02 07:37:00,
2013-06-02 02:41:00,72.8,69.7,29.91,NNE,30,0.0,2.0,90,0.00,,---,0.00,0.00,VWS V14.00,2013-06-02 07:41:00,
2013-06-02 02:45:00,72.7,69.6,29.92,NNE,30,0.0,2.0,90,0.00,,---,0.00,0.00,VWS V14.00,2013-06-02 07:45:00,
2013-06-02 02:49:00,72.5,69.7,29.92,NNE,30,0.0,2.0,91,0.00,,---,0.00,0.00,VWS V14.00,2013-06-02 07:49:00,
2013-06-02 02:53:00,72.4,69.6,29.92,NNE,30,0.0,2.0,91,0.00,,---,0.00,0.00,VWS V14.00,2013-06-02 07:53:00,
2013-06-02 02:57:00,72.3,69.2,29.92,NE,55,0.0,2.0,90,0.00,,---,0.00,0.00,VWS V14.00,2013-06-02 07:57:00,
2013-06-02 03:00:00,72.3,69.2,29.90,NE,53,0.0,2.0,90,0.00,,---,0.00,0.00,VWS V14.00,2013-06-02 08:00:00,
2013-06-02 03:01:00,72.2,68.8,29.90,NE,43,0.0,1.0,89,0.00,,---,0.00,0.00,VWS V14.00,2013-06-02 08:01:00,
2013-06-02 03:05:00,72.2,69.1,29.90,NE,41,1.0,1.0,90,0.00,,---,0.00,0.00,VWS V14.00,2013-06-02 08:05:00,
2013-06-02 03:09:00,72.3,69.2,29.90,NE,41,0.0,1.0,90,0.00,,---,0.00,0.00,VWS V14.00,2013-06-02 08:09:00,
2013-06-02 03:13:00,72.3,68.9,29.90,NE,43,0.0,1.0,89,0.00,,---,0.00,0.00,VWS V14.00,2013-06-02 08:13:00,
2013-06-02 03:18:00,72.4,69.3,29.91,NE,43,0.0,1.0,90,0.00,,---,0.00,0.00,VWS V14.00,2013-06-02 08:18:00,
2013-06-02 03:22:00,72.6,69.2,29.91,NE,43,0.0,1.0,89,0.00,,---,0.00,0.00,VWS V14.00,2013-06-02 08:22:00,
2013-06-02 03:26:00,72.6,69.5,29.91,NE,43,0.0,1.0,90,0.00,,---,0.00,0.00,VWS V14.00,2013-06-02 08:26:00,
2013-06-02 03:30:00,72.4,69.3,29.92,NE,43,0.0,1.0,90,0.00,,---,0.00,0.00,VWS V14.00,2013-06-02 08:30:00,
2013-06-02 03:34:00,72.1,69.0,29.92,North,360,1.0,2.0,90,0.00,,---,0.00,0.00,VWS V14.00,2013-06-02 08:34:00,
2013-06-02 03:38:00,71.9,69.1,29.92,North,360,0.0,2.0,91,0.00,,---,0.00,0.00,VWS V14.00,2013-06-02 08:38:00,
2013-06-02 03:42:00,71.9,68.8,29.92,NNW,327,1.0,2.0,90,0.00,,---,0.00,0.00,VWS V14.00,2013-06-02 08:42:00,
2013-06-02 03:46:00,72.0,68.9,29.92,NNW,340,0.0,4.0,90,0.00,,---,0.00,0.00,VWS V14.00,2013-06-02 08:46:00,
2013-06-02 03:50:00,72.0,68.9,29.92,NNW,340,0.0,4.0,90,0.00,,---,0.00,0.00,VWS V14.00,2013-06-02 08:50:00,
2013-06-02 03:54:00,72.0,68.9,29.92,NNW,341,1.0,4.0,90,0.00,,---,0.00,0.00,VWS V14.00,2013-06-02 08:54:00,
2013-06-02 03:58:00,71.9,68.8,29.92,NNW,344,0.0,4.0,90,0.00,,---,0.00,0.00,VWS V14.00,2013-06-02 08:58:00,
2013-06-02 04:00:00,72.0,68.9,29.92,NNW,344,1.0,4.0,90,0.00,,---,0.00,0.00,VWS V14.00,2013-06-02 09:00:00,
2013-06-02 04:03:00,72.0,68.9,29.92,NNW,344,2.0,2.0,90,0.00,,---,0.00,0.00,VWS V14.00,2013-06-02 09:03:00,
2013-06-02 04:07:00,72.0,69.2,29.92,NNW,344,4.0,4.0,91,0.00,,---,0.00,0.00,VWS V14.00,2013-06-02 09:07:00,
2013-06-02 04:11:00,72.0,69.2,29.92,NNW,333,3.0,4.0,91,0.00,,---,0.00,0.00,VWS V14.00,2013-06-02 09:11:00,
2013-06-02 04:15:00,72.0,69.2,29.92,NNW,338,1.0,4.0,91,0.00,,---,0.00,0.00,VWS V14.00,2013-06-02 09:15:00,
2013-06-02 04:19:00,72.0,69.2,29.92,North,351,3.0,5.0,91,0.00,,---,0.00,0.00,VWS V14.00,2013-06-02 09:19:00,
2013-06-02 04:23:00,72.0,69.2,29.92,NNW,337,0.0,5.0,91,0.00,,---,0.00,0.00,VWS V14.00,2013-06-02 09:23:00,
2013-06-02 04:27:00,72.0,69.2,29.92,NW,321,3.0,5.0,91,0.00,,---,0.00,0.00,VWS V14.00,2013-06-02 09:27:00,
2013-06-02 04:30:00,72.0,69.2,29.93,NW,320,0.0,5.0,91,0.00,,---,0.00,0.00,VWS V14.00,2013-06-02 09:30:00,
2013-06-02 04:31:00,72.0,69.6,29.93,NNW,328,2.0,3.0,92,0.00,,---,0.00,0.00,VWS V14.00,2013-06-02 09:31:00,
2013-06-02 04:35:00,71.9,69.1,29.93,NNW,328,0.0,3.0,91,0.00,,---,0.00,0.00,VWS V14.00,2013-06-02 09:35:00,
2013-06-02 04:39:00,71.9,69.4,29.93,NNW,328,0.0,3.0,92,0.00,,---,0.00,0.00,VWS V14.00,2013-06-02 09:39:00,
2013-06-02 04:44:00,71.7,69.3,29.93,NNW,331,0.0,3.0,92,0.00,,---,0.00,0.00,VWS V14.00,2013-06-02 09:44:00,
2013-06-02 04:48:00,71.6,69.2,29.93,North,5,1.0,3.0,92,0.00,,---,0.00,0.00,VWS V14.00,2013-06-02 09:48:00,
2013-06-02 04:52:00,71.5,69.1,29.93,North,360,0.0,3.0,92,0.00,,---,0.00,0.00,VWS V14.00,2013-06-02 09:52:00,
2013-06-02 04:56:00,71.5,69.1,29.93,NNW,348,0.0,3.0,92,0.00,,---,0.00,0.00,VWS V14.00,2013-06-02 09:56:00,
2013-06-02 05:00:00,71.4,69.0,29.93,NNW,338,0.0,4.0,92,0.00,,---,0.00,0.00,VWS V14.00,2013-06-02 10:00:00,
2013-06-02 05:04:00,71.4,69.0,29.93,NNW,338,1.0,2.0,92,0.00,,---,0.00,0.00,VWS V14.00,2013-06-02 10:04:00,
2013-06-02 05:08:00,71.4,69.0,29.93,NNW,338,0.0,2.0,92,0.00,,---,0.00,0.00,VWS V14.00,2013-06-02 10:08:00,
2013-06-02 05:13:00,71.2,68.8,29.93,NNW,338,0.0,2.0,92,0.00,,---,0.00,0.00,VWS V14.00,2013-06-02 10:13:00,
2013-06-02 05:17:00,71.2,69.1,29.93,NNW,338,1.0,2.0,93,0.00,,---,0.00,0.00,VWS V14.00,2013-06-02 10:17:00,
2013-06-02 05:21:00,71.1,69.0,29.93,North,360,3.0,4.0,93,0.00,,---,0.00,0.00,VWS V14.00,2013-06-02 10:21:00,
2013-06-02 05:25:00,71.2,69.1,29.93,North,360,1.0,4.0,93,0.00,,---,0.00,0.00,VWS V14.00,2013-06-02 10:25:00,
2013-06-02 05:29:00,71.2,69.1,29.93,North,360,2.0,4.0,93,0.00,,---,0.00,0.00,VWS V14.00,2013-06-02 10:29:00,
2013-06-02 05:30:00,71.2,69.1,29.93,North,360,0.0,4.0,93,0.00,,---,0.00,0.00,VWS V14.00,2013-06-02 10:30:00,
2013-06-02 05:33:00,71.2,69.1,29.93,North,360,2.0,2.0,93,0.00,,---,0.00,0.00,VWS V14.00,2013-06-02 10:33:00,
2013-06-02 05:37:00,71.1,68.7,29.93,North,355,0.0,5.0,92,0.00,,---,0.00,0.00,VWS V14.00,2013-06-02 10:37:00,
2013-06-02 05:41:00,71.0,68.9,29.93,North,355,1.0,5.0,93,0.00,,---,0.00,0.00,VWS V14.00,2013-06-02 10:41:00,
2013-06-02 05:45:00,70.8,68.4,29.93,North,355,2.0,5.0,92,0.00,,---,0.00,0.00,VWS V14.00,2013-06-02 10:45:00,
2013-06-02 05:49:00,70.7,68.3,29.93,NNW,347,4.0,5.0,92,0.00,,---,0.00,0.00,VWS V14.00,2013-06-02 10:49:00,
2013-06-02 05:54:00,70.7,68.6,29.93,NNW,347,3.0,5.0,93,0.00,,---,0.00,0.00,VWS V14.00,2013-06-02 10:54:00,
2013-06-02 05:58:00,70.5,68.1,29.93,NNW,342,2.0,5.0,92,0.00,,---,0.00,7.00,VWS V14.00,2013-06-02 10:58:00,
2013-06-02 06:00:00,70.4,68.0,29.94,NNW,348,2.0,5.0,92,0.00,,---,0.00,7.00,VWS V14.00,2013-06-02 11:00:00,
2013-06-02 06:02:00,70.2,67.4,29.94,NNW,342,2.0,3.0,91,0.00,,---,0.00,11.00,VWS V14.00,2013-06-02 11:02:00,
2013-06-02 06:06:00,69.6,65.9,29.94,NNW,344,1.0,9.0,88,0.00,,---,0.00,14.00,VWS V14.00,2013-06-02 11:06:00,
2013-06-02 06:10:00,69.3,65.3,29.94,NNW,345,2.0,9.0,87,0.00,,---,0.00,23.00,VWS V14.00,2013-06-02 11:10:00,
2013-06-02 06:14:00,69.1,64.7,29.95,NNW,346,4.0,9.0,86,0.00,,---,0.00,28.00,VWS V14.00,2013-06-02 11:14:00,
2013-06-02 06:18:00,69.0,64.6,29.95,NNW,340,2.0,9.0,86,0.00,,---,0.00,33.00,VWS V14.00,2013-06-02 11:18:00,
2013-06-02 06:22:00,68.9,64.6,29.95,NW,325,5.0,9.0,86,0.00,,---,0.00,35.00,VWS V14.00,2013-06-02 11:22:00,
2013-06-02 06:27:00,68.8,64.4,29.95,North,351,4.0,9.0,86,0.00,,---,0.00,37.00,VWS V14.00,2013-06-02 11:27:00,
2013-06-02 06:30:00,68.6,64.2,29.95,NNW,344,3.0,9.0,86,0.00,,---,0.00,40.00,VWS V14.00,2013-06-02 11:30:00,
2013-06-02 06:31:00,68.5,64.2,29.95,NNW,332,2.0,4.0,86,0.00,,---,0.00,42.00,VWS V14.00,2013-06-02 11:31:00,
2013-06-02 06:35:00,68.4,63.7,29.95,NNW,336,4.0,10.0,85,0.00,,---,0.00,49.00,VWS V14.00,2013-06-02 11:35:00,
2013-06-02 06:39:00,68.3,63.6,29.95,NNW,331,4.0,10.0,85,0.00,,---,0.00,67.00,VWS V14.00,2013-06-02 11:39:00,
2013-06-02 06:43:00,68.2,63.5,29.95,NNE,18,6.0,10.0,85,0.00,,---,0.00,72.00,VWS V14.00,2013-06-02 11:43:00,
2013-06-02 06:47:00,68.3,63.6,29.94,NNW,343,0.0,10.0,85,0.00,,---,0.00,76.00,VWS V14.00,2013-06-02 11:47:00,
2013-06-02 06:51:00,68.2,63.5,29.94,North,360,0.0,10.0,85,0.00,,---,0.00,88.00,VWS V14.00,2013-06-02 11:51:00,
2013-06-02 06:55:00,68.1,63.1,29.94,NNW,338,3.0,10.0,84,0.00,,---,0.00,95.00,VWS V14.00,2013-06-02 11:55:00,
2013-06-02 06:59:00,68.1,63.4,29.96,North,355,2.0,10.0,85,0.00,,---,0.00,127.00,VWS V14.00,2013-06-02 11:59:00,
2013-06-02 07:00:00,68.1,63.4,29.96,NNW,348,6.0,10.0,85,0.00,,---,0.00,127.00,VWS V14.00,2013-06-02 12:00:00,
2013-06-02 07:03:00,68.1,63.1,29.96,NNW,340,3.0,5.0,84,0.00,,---,0.00,127.00,VWS V14.00,2013-06-02 12:03:00,
2013-06-02 07:08:00,68.1,62.8,29.96,North,355,5.0,7.0,83,0.00,,---,0.00,111.00,VWS V14.00,2013-06-02 12:08:00,
2013-06-02 07:12:00,68.1,62.8,29.96,NNW,343,6.0,7.0,83,0.00,,---,0.00,93.00,VWS V14.00,2013-06-02 12:12:00,
2013-06-02 07:16:00,68.1,63.1,29.97,North,11,4.0,7.0,84,0.00,,---,0.00,95.00,VWS V14.00,2013-06-02 12:16:00,
2013-06-02 07:20:00,67.9,62.5,29.97,North,355,5.0,7.0,83,0.00,,---,0.00,97.00,VWS V14.00,2013-06-02 12:20:00,
2013-06-02 07:24:00,67.9,62.5,29.97,North,5,3.0,7.0,83,0.00,,---,0.00,104.00,VWS V14.00,2013-06-02 12:24:00,
2013-06-02 07:28:00,67.9,62.2,29.97,NNW,336,3.0,7.0,82,0.00,,---,0.00,111.00,VWS V14.00,2013-06-02 12:28:00,
2013-06-02 07:30:00,67.8,62.5,29.99,NNE,21,2.0,7.0,83,0.00,,---,0.00,114.00,VWS V14.00,2013-06-02 12:30:00,
2013-06-02 07:32:00,67.9,62.5,29.99,North,5,3.0,4.0,83,0.00,,---,0.00,118.00,VWS V14.00,2013-06-02 12:32:00,
2013-06-02 07:36:00,67.9,62.2,29.99,North,360,2.0,4.0,82,0.00,,---,0.00,127.00,VWS V14.00,2013-06-02 12:36:00,
2013-06-02 07:40:00,68.0,62.7,29.99,NNW,348,3.0,4.0,83,0.00,,---,0.00,139.00,VWS V14.00,2013-06-02 12:40:00,
2013-06-02 07:44:00,68.1,62.4,29.99,NNW,342,0.0,7.0,82,0.00,,---,0.00,139.00,VWS V14.00,2013-06-02 12:44:00,
2013-06-02 07:49:00,68.3,62.6,29.98,NNW,340,3.0,7.0,82,0.00,,---,0.00,149.00,VWS V14.00,2013-06-02 12:49:00,
2013-06-02 07:53:00,68.4,62.7,29.98,NNW,336,5.0,7.0,82,0.00,,---,0.00,206.00,VWS V14.00,2013-06-02 12:53:00,
2013-06-02 07:57:00,68.5,62.5,29.98,NNW,340,2.0,7.0,81,0.00,,---,0.00,167.00,VWS V14.00,2013-06-02 12:57:00,
2013-06-02 08:01:00,68.5,62.8,29.99,North,360,0.0,7.0,82,0.00,,---,0.00,153.00,VWS V14.00,2013-06-02 13:01:00,
2013-06-02 08:05:00,68.7,62.6,29.99,North,360,0.0,7.0,81,0.00,,---,0.00,128.00,VWS V14.00,2013-06-02 13:05:00,
2013-06-02 08:09:00,68.7,62.6,29.99,North,360,0.0,7.0,81,0.00,,---,0.00,137.00,VWS V14.00,2013-06-02 13:09:00,
2013-06-02 08:13:00,68.8,62.7,29.99,North,350,0.0,7.0,81,0.00,,---,0.00,199.00,VWS V14.00,2013-06-02 13:13:00,
2013-06-02 08:17:00,69.4,63.3,29.99,North,351,1.0,7.0,81,0.00,,---,0.00,204.00,VWS V14.00,2013-06-02 13:17:00,
2013-06-02 08:22:00,69.7,63.3,29.99,NE,38,0.0,7.0,80,0.00,,---,0.00,192.00,VWS V14.00,2013-06-02 13:22:00,
2013-06-02 08:26:00,69.9,63.5,29.99,NNE,26,0.0,7.0,80,0.00,,---,0.00,239.00,VWS V14.00,2013-06-02 13:26:00,
2013-06-02 08:30:00,70.3,63.5,30.00,NNW,344,2.0,7.0,79,0.00,,---,0.00,288.00,VWS V14.00,2013-06-02 13:30:00,
2013-06-02 08:34:00,70.6,63.8,30.00,NNW,348,3.0,4.0,79,0.00,,---,0.00,271.00,VWS V14.00,2013-06-02 13:34:00,
2013-06-02 08:38:00,70.6,63.0,30.00,NNW,344,4.0,5.0,77,0.00,,---,0.00,283.00,VWS V14.00,2013-06-02 13:38:00,
2013-06-02 08:42:00,70.7,63.9,30.00,NNW,335,4.0,5.0,79,0.00,,---,0.00,276.00,VWS V14.00,2013-06-02 13:42:00,
2013-06-02 08:46:00,70.9,64.1,30.00,NNW,348,3.0,5.0,79,0.00,,---,0.00,274.00,VWS V14.00,2013-06-02 13:46:00,
2013-06-02 08:50:00,70.9,63.7,30.00,NNW,348,0.0,5.0,78,0.00,,---,0.00,287.00,VWS V14.00,2013-06-02 13:50:00,
2013-06-02 08:54:00,71.1,63.9,30.00,NNW,334,0.0,5.0,78,0.00,,---,0.00,276.00,VWS V14.00,2013-06-02 13:54:00,
2013-06-02 08:58:00,71.1,63.2,30.00,North,351,1.0,5.0,76,0.00,,---,0.00,265.00,VWS V14.00,2013-06-02 13:58:00,
2013-06-02 09:00:00,71.0,64.2,30.00,North,351,1.0,5.0,79,0.00,,---,0.00,227.00,VWS V14.00,2013-06-02 14:00:00,
2013-06-02 09:03:00,71.0,63.4,30.00,North,351,0.0,4.0,77,0.00,,---,0.00,220.00,VWS V14.00,2013-06-02 14:03:00,
2013-06-02 09:07:00,70.8,63.2,30.00,North,355,0.0,4.0,77,0.00,,---,0.00,211.00,VWS V14.00,2013-06-02 14:07:00,
2013-06-02 09:11:00,70.8,63.6,30.00,North,355,3.0,4.0,78,0.00,,---,0.00,211.00,VWS V14.00,2013-06-02 14:11:00,
2013-06-02 09:15:00,71.0,63.8,30.01,NNW,345,0.0,4.0,78,0.00,,---,0.00,436.00,VWS V14.00,2013-06-02 14:15:00,
2013-06-02 09:19:00,71.7,63.4,30.01,NNW,348,0.0,4.0,75,0.00,,---,0.00,454.00,VWS V14.00,2013-06-02 14:19:00,
2013-06-02 09:23:00,72.0,63.3,30.01,North,11,0.0,4.0,74,0.00,,---,0.00,294.00,VWS V14.00,2013-06-02 14:23:00,
2013-06-02 09:27:00,72.3,65.1,30.01,North,11,0.0,4.0,78,0.00,,---,0.00,399.00,VWS V14.00,2013-06-02 14:27:00,
2013-06-02 09:30:00,72.7,64.7,30.00,NNW,344,3.0,4.0,76,0.00,,---,0.00,527.00,VWS V14.00,2013-06-02 14:30:00,
2013-06-02 09:31:00,72.8,64.4,30.00,East,79,2.0,2.0,75,0.00,,---,0.00,526.00,VWS V14.00,2013-06-02 14:31:00,
2013-06-02 09:35:00,73.2,64.0,30.00,North,350,2.0,6.0,73,0.00,,---,0.00,645.00,VWS V14.00,2013-06-02 14:35:00,
2013-06-02 09:39:00,73.4,64.6,30.00,North,350,4.0,6.0,74,0.00,,---,0.00,635.00,VWS V14.00,2013-06-02 14:39:00,
2013-06-02 09:43:00,73.7,64.9,30.00,North,350,1.0,6.0,74,0.00,,---,0.00,596.00,VWS V14.00,2013-06-02 14:43:00,
2013-06-02 09:48:00,73.9,64.3,30.00,NNW,342,5.0,6.0,72,0.00,,---,0.00,598.00,VWS V14.00,2013-06-02 14:48:00,
2013-06-02 09:52:00,74.1,64.9,30.00,North,360,0.0,6.0,73,0.00,,---,0.00,545.00,VWS V14.00,2013-06-02 14:52:00,
2013-06-02 09:56:00,74.2,65.0,30.00,North,360,0.0,6.0,73,0.00,,---,0.00,577.00,VWS V14.00,2013-06-02 14:56:00,
2013-06-02 10:00:00,74.4,64.8,30.00,East,81,1.0,6.0,72,0.00,,---,0.00,624.00,VWS V14.00,2013-06-02 15:00:00,
2013-06-02 10:04:00,74.5,64.1,30.00,NNW,327,4.0,5.0,70,0.00,,---,0.00,531.00,VWS V14.00,2013-06-02 15:04:00,
2013-06-02 10:08:00,74.7,63.9,30.00,NNW,338,3.0,5.0,69,0.00,,---,0.00,577.00,VWS V14.00,2013-06-02 15:08:00,
2013-06-02 10:12:00,75.1,65.5,30.00,NNW,336,3.0,5.0,72,0.00,,---,0.00,659.00,VWS V14.00,2013-06-02 15:12:00,
2013-06-02 10:16:00,75.3,64.8,30.00,North,355,3.0,5.0,70,0.00,,---,0.00,650.00,VWS V14.00,2013-06-02 15:16:00,
2013-06-02 10:20:00,75.4,64.1,30.00,NNW,340,1.0,5.0,68,0.00,,---,0.00,636.00,VWS V14.00,2013-06-02 15:20:00,
2013-06-02 10:24:00,75.9,65.0,30.00,North,350,5.0,6.0,69,0.00,,---,0.00,722.00,VWS V14.00,2013-06-02 15:24:00,
2013-06-02 10:28:00,76.0,65.1,30.00,WNW,290,3.0,6.0,69,0.00,,---,0.00,700.00,VWS V14.00,2013-06-02 15:28:00,
2013-06-02 10:30:00,76.0,65.5,30.00,North,360,2.0,6.0,70,0.00,,---,0.00,624.00,VWS V14.00,2013-06-02 15:30:00,
2013-06-02 10:32:00,76.0,64.7,30.00,NNW,342,6.0,6.0,68,0.00,,---,0.00,584.00,VWS V14.00,2013-06-02 15:32:00,
2013-06-02 10:36:00,75.8,64.9,30.00,NNE,12,2.0,6.0,69,0.00,,---,0.00,608.00,VWS V14.00,2013-06-02 15:36:00,
2013-06-02 10:40:00,75.6,63.9,30.00,NW,323,2.0,6.0,67,0.00,,---,0.00,559.00,VWS V14.00,2013-06-02 15:40:00,
2013-06-02 10:45:00,75.3,64.0,30.00,NW,310,0.0,6.0,68,0.00,,---,0.00,615.00,VWS V14.00,2013-06-02 15:45:00,
2013-06-02 10:49:00,75.6,63.5,30.00,WSW,246,4.0,6.0,66,0.00,,---,0.00,722.00,VWS V14.00,2013-06-02 15:49:00,
2013-06-02 10:53:00,75.8,64.9,30.00,NNW,338,2.0,6.0,69,0.00,,---,0.00,691.00,VWS V14.00,2013-06-02 15:53:00,
2013-06-02 10:57:00,76.2,63.6,30.00,NW,321,3.0,6.0,65,0.00,,---,0.00,708.00,VWS V14.00,2013-06-02 15:57:00,
2013-06-02 11:00:00,76.2,64.0,29.99,North,5,4.0,7.0,66,0.00,,---,0.00,717.00,VWS V14.00,2013-06-02 16:00:00,
2013-06-02 11:01:00,76.2,63.6,29.99,WNW,302,3.0,4.0,65,0.00,,---,0.00,712.00,VWS V14.00,2013-06-02 16:01:00,
2013-06-02 11:05:00,76.7,65.3,29.99,NW,326,2.0,5.0,68,0.00,,---,0.00,701.00,VWS V14.00,2013-06-02 16:05:00,
2013-06-02 11:09:00,77.6,65.8,29.99,NNW,339,1.0,5.0,67,0.00,,---,0.00,838.00,VWS V14.00,2013-06-02 16:09:00,
2013-06-02 11:13:00,78.1,63.1,29.99,North,355,4.0,6.0,60,0.00,,---,0.00,789.00,VWS V14.00,2013-06-02 16:13:00,
2013-06-02 11:17:00,77.8,63.8,29.99,WNW,290,4.0,6.0,62,0.00,,---,0.00,763.00,VWS V14.00,2013-06-02 16:17:00,
2013-06-02 11:21:00,78.3,63.3,29.99,NW,317,7.0,9.0,60,0.00,,---,0.00,895.00,VWS V14.00,2013-06-02 16:21:00,
2013-06-02 11:25:00,78.5,62.5,29.99,North,355,3.0,9.0,58,0.00,,---,0.00,911.00,VWS V14.00,2013-06-02 16:25:00,
2013-06-02 11:29:00,78.5,63.0,29.99,NNE,19,3.0,9.0,59,0.00,,---,0.00,911.00,VWS V14.00,2013-06-02 16:29:00,
2013-06-02 11:30:00,78.5,63.5,29.99,NNW,348,4.0,9.0,60,0.00,,---,0.00,911.00,VWS V14.00,2013-06-02 16:30:00,
2013-06-02 11:33:00,78.6,61.6,29.99,NW,324,2.0,8.0,56,0.00,,---,0.00,896.00,VWS V14.00,2013-06-02 16:33:00,
2013-06-02 11:38:00,79.1,62.6,29.99,NE,52,3.0,8.0,57,0.00,,---,0.00,926.00,VWS V14.00,2013-06-02 16:38:00,
2013-06-02 11:42:00,79.6,64.0,29.99,NNW,339,6.0,8.0,59,0.00,,---,0.00,911.00,VWS V14.00,2013-06-02 16:42:00,
2013-06-02 11:46:00,79.2,62.2,29.99,North,9,4.0,8.0,56,0.00,,---,0.00,882.00,VWS V14.00,2013-06-02 16:46:00,
2013-06-02 11:50:00,79.0,62.5,29.99,NNW,344,1.0,8.0,57,0.00,,---,0.00,942.00,VWS V14.00,2013-06-02 16:50:00,
2013-06-02 11:54:00,79.1,63.1,29.99,NNW,348,6.0,9.0,58,0.00,,---,0.00,900.00,VWS V14.00,2013-06-02 16:54:00,
2013-06-02 11:58:00,79.4,63.3,29.99,NNW,336,3.0,9.0,58,0.00,,---,0.00,935.00,VWS V14.00,2013-06-02 16:58:00,
2013-06-02 12:00:00,79.5,63.0,29.99,NNE,27,6.0,9.0,57,0.00,,---,0.00,928.00,VWS V14.00,2013-06-02 17:00:00,
2013-06-02 12:02:00,79.5,61.9,29.99,North,355,3.0,8.0,55,0.00,,---,0.00,942.00,VWS V14.00,2013-06-02 17:02:00,
2013-06-02 12:06:00,79.6,63.5,29.99,North,355,1.0,9.0,58,0.00,,---,0.00,740.00,VWS V14.00,2013-06-02 17:06:00,
2013-06-02 12:10:00,79.4,61.8,29.99,North,9,7.0,9.0,55,0.00,,---,0.00,1025.00,VWS V14.00,2013-06-02 17:10:00,
2013-06-02 12:14:00,79.2,62.7,29.99,NNW,348,6.0,9.0,57,0.00,,---,0.00,895.00,VWS V14.00,2013-06-02 17:14:00,
2013-06-02 12:18:00,79.2,63.2,29.98,North,355,3.0,9.0,58,0.00,,---,0.00,1042.00,VWS V14.00,2013-06-02 17:18:00,
2013-06-02 12:22:00,79.3,62.3,29.98,North,355,5.0,9.0,56,0.00,,---,0.00,969.00,VWS V14.00,2013-06-02 17:22:00,
2013-06-02 12:26:00,79.1,63.6,29.98,NNW,345,3.0,9.0,59,0.00,,---,0.00,889.00,VWS V14.00,2013-06-02 17:26:00,
2013-06-02 12:30:00,79.4,64.8,29.98,North,349,3.0,9.0,61,0.00,,---,0.00,853.00,VWS V14.00,2013-06-02 17:30:00,
2013-06-02 12:34:00,79.1,64.0,29.98,NNW,348,3.0,6.0,60,0.00,,---,0.00,773.00,VWS V14.00,2013-06-02 17:34:00,
2013-06-02 12:38:00,79.0,64.4,29.98,North,355,2.0,10.0,61,0.00,,---,0.00,840.00,VWS V14.00,2013-06-02 17:38:00,
2013-06-02 12:43:00,79.1,63.6,29.98,NNE,22,6.0,10.0,59,0.00,,---,0.00,802.00,VWS V14.00,2013-06-02 17:43:00,
2013-06-02 12:47:00,78.8,61.3,29.98,North,355,3.0,10.0,55,0.00,,---,0.00,918.00,VWS V14.00,2013-06-02 17:47:00,
2013-06-02 12:51:00,79.3,64.2,29.98,NNW,328,1.0,10.0,60,0.00,,---,0.00,930.00,VWS V14.00,2013-06-02 17:51:00,
2013-06-02 12:55:00,80.1,64.5,29.98,NNE,21,1.0,10.0,59,0.00,,---,0.00,863.00,VWS V14.00,2013-06-02 17:55:00,
2013-06-02 12:59:00,80.2,65.1,29.98,NNW,348,5.0,10.0,60,0.00,,---,0.00,984.00,VWS V14.00,2013-06-02 17:59:00,
2013-06-02 13:00:00,80.1,63.0,29.97,NW,323,4.0,10.0,56,0.00,,---,0.00,998.00,VWS V14.00,2013-06-02 18:00:00,
2013-06-02 13:03:00,79.9,65.3,29.97,NW,319,3.0,4.0,61,0.00,,---,0.00,991.00,VWS V14.00,2013-06-02 18:03:00,
2013-06-02 13:07:00,79.7,61.1,29.97,NNW,346,5.0,7.0,53,0.00,,---,0.00,951.00,VWS V14.00,2013-06-02 18:07:00,
2013-06-02 13:11:00,79.6,63.5,29.97,North,11,5.0,7.0,58,0.00,,---,0.00,814.00,VWS V14.00,2013-06-02 18:11:00,
2013-06-02 13:15:00,79.5,63.9,29.97,North,5,3.0,7.0,59,0.00,,---,0.00,803.00,VWS V14.00,2013-06-02 18:15:00,
2013-06-02 13:19:00,79.4,61.8,29.97,West,275,3.0,7.0,55,0.00,,---,0.00,884.00,VWS V14.00,2013-06-02 18:19:00,
2013-06-02 13:23:00,79.4,64.3,29.97,NNW,346,3.0,9.0,60,0.00,,---,0.00,745.00,VWS V14.00,2013-06-02 18:23:00,
2013-06-02 13:27:00,79.1,61.0,29.97,NW,311,1.0,9.0,54,0.00,,---,0.00,661.00,VWS V14.00,2013-06-02 18:27:00,
2013-06-02 13:30:00,79.5,65.8,29.96,NW,312,3.0,9.0,63,0.00,,---,0.00,1009.00,VWS V14.00,2013-06-02 18:30:00,
2013-06-02 13:31:00,79.9,62.8,29.96,NNW,335,6.0,6.0,56,0.00,,---,0.00,1011.00,VWS V14.00,2013-06-02 18:31:00,
2013-06-02 13:35:00,79.9,63.3,29.96,NNE,17,5.0,6.0,57,0.00,,---,0.00,972.00,VWS V14.00,2013-06-02 18:35:00,
2013-06-02 13:39:00,80.2,64.1,29.96,NNE,17,5.0,6.0,58,0.00,,---,0.00,937.00,VWS V14.00,2013-06-02 18:39:00,
2013-06-02 13:44:00,80.0,63.9,29.96,North,5,4.0,6.0,58,0.00,,---,0.00,976.00,VWS V14.00,2013-06-02 18:44:00,
2013-06-02 13:48:00,80.4,62.2,29.95,NW,323,4.0,6.0,54,0.00,,---,0.00,900.00,VWS V14.00,2013-06-02 18:48:00,
2013-06-02 13:52:00,80.7,64.1,29.95,West,267,6.0,6.0,57,0.00,,---,0.00,965.00,VWS V14.00,2013-06-02 18:52:00,
2013-06-02 13:56:00,81.1,63.9,29.95,NNW,336,3.0,6.0,56,0.00,,---,0.00,969.00,VWS V14.00,2013-06-02 18:56:00,
2013-06-02 14:00:00,80.9,63.2,29.95,NNE,17,4.0,6.0,55,0.00,,---,0.00,967.00,VWS V14.00,2013-06-02 19:00:00,
2013-06-02 14:04:00,80.7,62.5,29.95,North,11,5.0,7.0,54,0.00,,---,0.00,926.00,VWS V14.00,2013-06-02 19:04:00,
2013-06-02 14:08:00,80.8,62.6,29.95,NW,317,7.0,9.0,54,0.00,,---,0.00,893.00,VWS V14.00,2013-06-02 19:08:00,
2013-06-02 14:12:00,80.8,63.7,29.95,North,355,2.0,9.0,56,0.00,,---,0.00,902.00,VWS V14.00,2013-06-02 19:12:00,
2013-06-02 14:16:00,81.0,62.3,29.95,NNW,341,5.0,9.0,53,0.00,,---,0.00,895.00,VWS V14.00,2013-06-02 19:16:00,
2013-06-02 14:20:00,81.0,61.7,29.95,NW,320,2.0,9.0,52,0.00,,---,0.00,937.00,VWS V14.00,2013-06-02 19:20:00,
2013-06-02 14:24:00,81.2,62.5,29.95,NNE,18,5.0,10.0,53,0.00,,---,0.00,831.00,VWS V14.00,2013-06-02 19:24:00,
2013-06-02 14:29:00,80.6,61.9,29.95,North,11,3.0,10.0,53,0.00,,---,0.00,809.00,VWS V14.00,2013-06-02 19:29:00,
2013-06-02 14:30:00,80.7,63.6,29.94,WNW,300,4.0,10.0,56,0.00,,---,0.00,842.00,VWS V14.00,2013-06-02 19:30:00,
2013-06-02 14:33:00,80.6,60.8,29.94,NW,326,0.0,6.0,51,0.00,,---,0.00,863.00,VWS V14.00,2013-06-02 19:33:00,
2013-06-02 14:37:00,81.3,62.5,29.94,North,5,3.0,6.0,53,0.00,,---,0.00,872.00,VWS V14.00,2013-06-02 19:37:00,
2013-06-02 14:41:00,81.7,60.7,29.94,WNW,300,0.0,8.0,49,0.00,,---,0.00,879.00,VWS V14.00,2013-06-02 19:41:00,
2013-06-02 14:45:00,81.4,60.4,29.93,NW,306,4.0,8.0,49,0.00,,---,0.00,823.00,VWS V14.00,2013-06-02 19:45:00,
2013-06-02 14:49:00,81.3,60.3,29.93,North,355,2.0,8.0,49,0.00,,---,0.00,802.00,VWS V14.00,2013-06-02 19:49:00,
2013-06-02 14:53:00,81.5,61.1,29.93,NNW,334,2.0,8.0,50,0.00,,---,0.00,907.00,VWS V14.00,2013-06-02 19:53:00,
2013-06-02 14:57:00,82.1,65.9,29.93,North,5,4.0,8.0,58,0.00,,---,0.00,817.00,VWS V14.00,2013-06-02 19:57:00,
2013-06-02 15:00:00,82.2,64.4,29.93,North,355,9.0,9.0,55,0.00,,---,0.00,838.00,VWS V14.00,2013-06-02 20:00:00,
2013-06-02 15:01:00,82.1,60.5,29.93,North,355,10.0,10.0,48,0.00,,---,0.00,828.00,VWS V14.00,2013-06-02 20:01:00,
2013-06-02 15:05:00,81.6,61.2,29.93,NNE,15,2.0,10.0,50,0.00,,---,0.00,830.00,VWS V14.00,2013-06-02 20:05:00,
2013-06-02 15:09:00,82.2,62.8,29.93,NNW,348,3.0,10.0,52,0.00,,---,0.00,835.00,VWS V14.00,2013-06-02 20:09:00,
2013-06-02 15:13:00,82.2,60.6,29.93,NNW,345,10.0,10.0,48,0.00,,---,0.00,838.00,VWS V14.00,2013-06-02 20:13:00,
2013-06-02 15:18:00,82.0,61.0,29.92,North,5,2.0,10.0,49,0.00,,---,0.00,826.00,VWS V14.00,2013-06-02 20:18:00,
2013-06-02 15:22:00,82.3,61.8,29.92,NNW,340,7.0,10.0,50,0.00,,---,0.00,816.00,VWS V14.00,2013-06-02 20:22:00,
2013-06-02 15:26:00,82.1,62.2,29.92,North,355,3.0,10.0,51,0.00,,---,0.00,807.00,VWS V14.00,2013-06-02 20:26:00,
2013-06-02 15:30:00,82.0,59.8,29.92,North,355,2.0,10.0,47,0.00,,---,0.00,795.00,VWS V14.00,2013-06-02 20:30:00,
2013-06-02 15:34:00,81.8,59.0,29.92,North,351,1.0,6.0,46,0.00,,---,0.00,786.00,VWS V14.00,2013-06-02 20:34:00,
2013-06-02 15:38:00,81.9,59.7,29.92,NNE,22,4.0,6.0,47,0.00,,---,0.00,775.00,VWS V14.00,2013-06-02 20:38:00,
2013-06-02 15:42:00,82.1,61.6,29.92,NNW,344,2.0,6.0,50,0.00,,---,0.00,766.00,VWS V14.00,2013-06-02 20:42:00,
2013-06-02 15:46:00,82.7,62.2,29.92,North,350,3.0,6.0,50,0.00,,---,0.00,756.00,VWS V14.00,2013-06-02 20:46:00,
2013-06-02 15:50:00,82.4,61.3,29.92,North,355,5.0,6.0,49,0.00,,---,0.00,749.00,VWS V14.00,2013-06-02 20:50:00,
2013-06-02 15:54:00,82.4,59.6,29.92,WNW,294,2.0,6.0,46,0.00,,---,0.00,737.00,VWS V14.00,2013-06-02 20:54:00,
2013-06-02 15:58:00,82.2,58.8,29.92,North,350,1.0,6.0,45,0.00,,---,0.00,722.00,VWS V14.00,2013-06-02 20:58:00,
2013-06-02 16:00:00,82.3,63.5,29.91,North,355,5.0,6.0,53,0.00,,---,0.00,721.00,VWS V14.00,2013-06-02 21:00:00,
2013-06-02 16:02:00,82.1,59.9,29.91,North,355,0.0,8.0,47,0.00,,---,0.00,714.00,VWS V14.00,2013-06-02 21:02:00,
2013-06-02 16:06:00,82.3,61.2,29.91,NNW,334,4.0,8.0,49,0.00,,---,0.00,703.00,VWS V14.00,2013-06-02 21:06:00,
2013-06-02 16:10:00,81.8,57.8,29.91,NNE,29,2.0,8.0,44,0.00,,---,0.00,691.00,VWS V14.00,2013-06-02 21:10:00,
2013-06-02 16:14:00,81.9,58.5,29.90,NNE,19,4.0,8.0,45,0.00,,---,0.00,682.00,VWS V14.00,2013-06-02 21:14:00,
2013-06-02 16:19:00,82.0,59.2,29.90,North,355,6.0,8.0,46,0.00,,---,0.00,668.00,VWS V14.00,2013-06-02 21:19:00,
2013-06-02 16:23:00,81.8,58.4,29.90,North,5,2.0,8.0,45,0.00,,---,0.00,657.00,VWS V14.00,2013-06-02 21:23:00,
2013-06-02 16:27:00,82.1,63.8,29.90,North,355,0.0,8.0,54,0.00,,---,0.00,647.00,VWS V14.00,2013-06-02 21:27:00,
2013-06-02 16:30:00,82.5,60.3,29.90,North,355,2.0,8.0,47,0.00,,---,0.00,640.00,VWS V14.00,2013-06-02 21:30:00,
2013-06-02 16:31:00,82.4,59.6,29.90,North,5,6.0,6.0,46,0.00,,---,0.00,636.00,VWS V14.00,2013-06-02 21:31:00,
2013-06-02 16:35:00,82.0,57.3,29.90,North,355,2.0,7.0,43,0.00,,---,0.00,621.00,VWS V14.00,2013-06-02 21:35:00,
2013-06-02 16:39:00,82.2,58.1,29.90,North,9,2.0,7.0,44,0.00,,---,0.00,613.00,VWS V14.00,2013-06-02 21:39:00,
2013-06-02 16:43:00,82.3,57.6,29.90,NW,309,3.0,7.0,43,0.00,,---,0.00,601.00,VWS V14.00,2013-06-02 21:43:00,
2013-06-02 16:47:00,82.0,57.3,29.90,NNW,341,2.0,7.0,43,0.00,,---,0.00,587.00,VWS V14.00,2013-06-02 21:47:00,
2013-06-02 16:51:00,82.0,59.8,29.90,NNW,346,2.0,7.0,47,0.00,,---,0.00,575.00,VWS V14.00,2013-06-02 21:51:00,
2013-06-02 16:55:00,82.2,59.4,29.90,North,355,5.0,7.0,46,0.00,,---,0.00,561.00,VWS V14.00,2013-06-02 21:55:00,
2013-06-02 16:59:00,81.9,57.2,29.90,North,9,2.0,7.0,43,0.00,,---,0.00,547.00,VWS V14.00,2013-06-02 21:59:00,
2013-06-02 17:00:00,81.9,57.2,29.90,NNE,19,1.0,7.0,43,0.00,,---,0.00,543.00,VWS V14.00,2013-06-02 22:00:00,
2013-06-02 17:03:00,81.9,59.1,29.90,North,350,4.0,4.0,46,0.00,,---,0.00,536.00,VWS V14.00,2013-06-02 22:03:00,
2013-06-02 17:07:00,81.8,58.4,29.90,North,11,2.0,4.0,45,0.00,,---,0.00,520.00,VWS V14.00,2013-06-02 22:07:00,
2013-06-02 17:11:00,81.8,57.1,29.90,NNW,336,5.0,5.0,43,0.00,,---,0.00,508.00,VWS V14.00,2013-06-02 22:11:00,
2013-06-02 17:16:00,81.6,57.6,29.90,NNE,19,6.0,6.0,44,0.00,,---,0.00,492.00,VWS V14.00,2013-06-02 22:16:00,
2013-06-02 17:20:00,81.5,55.5,29.90,NNW,329,2.0,6.0,41,0.00,,---,0.00,482.00,VWS V14.00,2013-06-02 22:20:00,
2013-06-02 17:24:00,81.5,58.1,29.90,NNE,13,3.0,6.0,45,0.00,,---,0.00,468.00,VWS V14.00,2013-06-02 22:24:00,
2013-06-02 17:28:00,81.6,59.4,29.90,North,355,2.0,6.0,47,0.00,,---,0.00,454.00,VWS V14.00,2013-06-02 22:28:00,
2013-06-02 17:30:00,81.6,59.4,29.90,NW,320,3.0,6.0,47,0.00,,---,0.00,446.00,VWS V14.00,2013-06-02 22:30:00,
2013-06-02 17:32:00,81.6,57.6,29.90,NNW,345,5.0,5.0,44,0.00,,---,0.00,445.00,VWS V14.00,2013-06-02 22:32:00,
2013-06-02 17:36:00,81.1,57.2,29.90,NW,326,0.0,5.0,44,0.00,,---,0.00,432.00,VWS V14.00,2013-06-02 22:36:00,
2013-06-02 17:40:00,81.4,57.4,29.90,NNW,341,2.0,5.0,44,0.00,,---,0.00,413.00,VWS V14.00,2013-06-02 22:40:00,
2013-06-02 17:44:00,81.2,55.3,29.90,North,360,2.0,6.0,41,0.00,,---,0.00,399.00,VWS V14.00,2013-06-02 22:44:00,
2013-06-02 17:48:00,81.2,57.2,29.90,North,360,4.0,8.0,44,0.00,,---,0.00,388.00,VWS V14.00,2013-06-02 22:48:00,
2013-06-02 17:52:00,81.1,57.8,29.90,North,355,3.0,8.0,45,0.00,,---,0.00,374.00,VWS V14.00,2013-06-02 22:52:00,
2013-06-02 17:56:00,81.0,55.8,29.90,North,355,3.0,8.0,42,0.00,,---,0.00,359.00,VWS V14.00,2013-06-02 22:56:00,
2013-06-02 18:00:00,80.9,55.7,29.89,NNW,331,4.0,8.0,42,0.00,,---,0.00,346.00,VWS V14.00,2013-06-02 23:00:00,
2013-06-02 18:04:00,80.7,56.8,29.89,NNW,340,3.0,6.0,44,0.00,,---,0.00,332.00,VWS V14.00,2013-06-02 23:04:00,
2013-06-02 18:08:00,80.6,55.4,29.89,North,5,5.0,8.0,42,0.00,,---,0.00,318.00,VWS V14.00,2013-06-02 23:08:00,
2013-06-02 18:13:00,80.4,55.9,29.89,NNW,346,3.0,8.0,43,0.00,,---,0.00,302.00,VWS V14.00,2013-06-02 23:13:00,
2013-06-02 18:17:00,80.3,56.4,29.89,NNW,339,3.0,8.0,44,0.00,,---,0.00,288.00,VWS V14.00,2013-06-02 23:17:00,
2013-06-02 18:21:00,80.2,56.3,29.89,North,360,2.0,8.0,44,0.00,,---,0.00,276.00,VWS V14.00,2013-06-02 23:21:00,
2013-06-02 18:25:00,80.2,58.2,29.89,North,351,1.0,8.0,47,0.00,,---,0.00,262.00,VWS V14.00,2013-06-02 23:25:00,
2013-06-02 18:29:00,80.3,58.2,29.89,North,355,1.0,8.0,47,0.00,,---,0.00,248.00,VWS V14.00,2013-06-02 23:29:00,
2013-06-02 18:30:00,80.2,58.2,29.89,North,355,2.0,8.0,47,0.00,,---,0.00,244.00,VWS V14.00,2013-06-02 23:30:00,
2013-06-02 18:33:00,80.0,58.6,29.89,North,360,2.0,3.0,48,0.00,,---,0.00,232.00,VWS V14.00,2013-06-02 23:33:00,
2013-06-02 18:37:00,79.8,59.0,29.89,North,355,0.0,4.0,49,0.00,,---,0.00,216.00,VWS V14.00,2013-06-02 23:37:00,
2013-06-02 18:41:00,79.2,57.8,29.89,North,360,2.0,4.0,48,0.00,,---,0.00,204.00,VWS V14.00,2013-06-02 23:41:00,
2013-06-02 18:45:00,79.1,57.8,29.89,NNE,22,2.0,4.0,48,0.00,,---,0.00,195.00,VWS V14.00,2013-06-02 23:45:00,
2013-06-02 18:49:00,78.8,56.3,29.89,NNW,348,3.0,5.0,46,0.00,,---,0.00,179.00,VWS V14.00,2013-06-02 23:49:00,
2013-06-02 18:53:00,78.4,57.7,29.89,North,355,4.0,5.0,49,0.00,,---,0.00,163.00,VWS V14.00,2013-06-02 23:53:00,
2013-06-02 18:57:00,78.2,56.9,29.89,North,355,2.0,5.0,48,0.00,,---,0.00,153.00,VWS V14.00,2013-06-02 23:57:00,
2013-06-02 19:00:00,78.0,56.7,29.90,North,349,3.0,5.0,48,0.00,,---,0.00,144.00,VWS V14.00,2013-06-03 00:00:00,
2013-06-02 19:01:00,77.9,57.2,29.90,North,360,1.0,3.0,49,0.00,,---,0.00,139.00,VWS V14.00,2013-06-03 00:01:00,
2013-06-02 19:06:00,77.7,57.0,29.90,NNW,337,1.0,5.0,49,0.00,,---,0.00,79.00,VWS V14.00,2013-06-03 00:06:00,
2013-06-02 19:10:00,77.3,57.8,29.90,North,360,0.0,5.0,51,0.00,,---,0.00,25.00,VWS V14.00,2013-06-03 00:10:00,
2013-06-02 19:14:00,76.9,56.9,29.90,North,5,2.0,6.0,50,0.00,,---,0.00,23.00,VWS V14.00,2013-06-03 00:14:00,
2013-06-02 19:18:00,76.6,57.1,29.90,North,5,3.0,6.0,51,0.00,,---,0.00,21.00,VWS V14.00,2013-06-03 00:18:00,
2013-06-02 19:22:00,76.4,56.4,29.90,NNW,346,2.0,6.0,50,0.00,,---,0.00,21.00,VWS V14.00,2013-06-03 00:22:00,
2013-06-02 19:26:00,76.1,56.7,29.90,NNE,26,0.0,6.0,51,0.00,,---,0.00,19.00,VWS V14.00,2013-06-03 00:26:00,
2013-06-02 19:30:00,75.8,56.9,29.90,NNW,334,2.0,6.0,52,0.00,,---,0.00,18.00,VWS V14.00,2013-06-03 00:30:00,
2013-06-02 19:34:00,75.5,57.2,29.90,North,350,3.0,4.0,53,0.00,,---,0.00,16.00,VWS V14.00,2013-06-03 00:34:00,
2013-06-02 19:38:00,75.1,57.3,29.90,North,350,0.0,4.0,54,0.00,,---,0.00,14.00,VWS V14.00,2013-06-03 00:38:00,
2013-06-02 19:42:00,74.8,58.1,29.90,NNW,344,0.0,4.0,56,0.00,,---,0.00,12.00,VWS V14.00,2013-06-03 00:42:00,
2013-06-02 19:46:00,74.7,58.0,29.91,NNW,340,0.0,4.0,56,0.00,,---,0.00,11.00,VWS V14.00,2013-06-03 00:46:00,
2013-06-02 19:50:00,74.4,57.7,29.91,NNW,340,0.0,4.0,56,0.00,,---,0.00,9.00,VWS V14.00,2013-06-03 00:50:00,
2013-06-02 19:54:00,74.1,57.9,29.91,NNW,340,0.0,4.0,57,0.00,,---,0.00,7.00,VWS V14.00,2013-06-03 00:54:00,
2013-06-02 19:58:00,74.0,58.3,29.91,NNW,344,0.0,4.0,58,0.00,,---,0.00,5.00,VWS V14.00,2013-06-03 00:58:00,
2013-06-02 20:00:00,73.8,59.1,29.91,NNW,344,0.0,4.0,60,0.00,,---,0.00,0.00,VWS V14.00,2013-06-03 01:00:00,
2013-06-02 20:03:00,73.5,58.8,29.91,NNW,340,1.0,4.0,60,0.00,,---,0.00,0.00,VWS V14.00,2013-06-03 01:03:00,
2013-06-02 20:07:00,73.5,58.8,29.91,NNW,340,0.0,4.0,60,0.00,,---,0.00,0.00,VWS V14.00,2013-06-03 01:07:00,
2013-06-02 20:11:00,73.5,58.8,29.91,NNW,340,3.0,4.0,60,0.00,,---,0.00,0.00,VWS V14.00,2013-06-03 01:11:00,
2013-06-02 20:15:00,73.5,58.8,29.91,NNW,339,2.0,4.0,60,0.00,,---,0.00,0.00,VWS V14.00,2013-06-03 01:15:00,
2013-06-02 20:19:00,73.5,58.8,29.91,NNW,340,0.0,4.0,60,0.00,,---,0.00,0.00,VWS V14.00,2013-06-03 01:19:00,
2013-06-02 20:23:00,73.4,58.7,29.91,NNW,344,1.0,4.0,60,0.00,,---,0.00,0.00,VWS V14.00,2013-06-03 01:23:00,
2013-06-02 20:27:00,73.2,59.9,29.91,NNW,343,0.0,4.0,63,0.00,,---,0.00,0.00,VWS V14.00,2013-06-03 01:27:00,
2013-06-02 20:30:00,72.8,59.0,29.91,NNW,343,1.0,4.0,62,0.00,,---,0.00,0.00,VWS V14.00,2013-06-03 01:30:00,
2013-06-02 20:31:00,72.7,59.4,29.91,NNW,343,1.0,2.0,63,0.00,,---,0.00,0.00,VWS V14.00,2013-06-03 01:31:00,
2013-06-02 20:35:00,72.5,59.2,29.91,NNW,343,2.0,3.0,63,0.00,,---,0.00,0.00,VWS V14.00,2013-06-03 01:35:00,
2013-06-02 20:39:00,72.4,59.5,29.91,NNW,344,3.0,3.0,64,0.00,,---,0.00,0.00,VWS V14.00,2013-06-03 01:39:00,
2013-06-02 20:43:00,72.3,59.5,29.91,NNW,340,1.0,3.0,64,0.00,,---,0.00,0.00,VWS V14.00,2013-06-03 01:43:00,
2013-06-02 20:47:00,72.1,59.7,29.91,NNW,340,3.0,3.0,65,0.00,,---,0.00,0.00,VWS V14.00,2013-06-03 01:47:00,
2013-06-02 20:51:00,72.0,59.6,29.91,NNW,340,3.0,3.0,65,0.00,,---,0.00,0.00,VWS V14.00,2013-06-03 01:51:00,
2013-06-02 20:56:00,72.0,59.6,29.91,NNW,344,3.0,3.0,65,0.00,,---,0.00,0.00,VWS V14.00,2013-06-03 01:56:00,
2013-06-02 21:00:00,71.9,59.9,29.91,NNW,344,0.0,3.0,66,0.00,,---,0.00,0.00,VWS V14.00,2013-06-03 02:00:00,
2013-06-02 21:04:00,71.5,60.0,29.91,NNW,344,0.0,2.0,67,0.00,,---,0.00,0.00,VWS V14.00,2013-06-03 02:04:00,
2013-06-02 21:08:00,71.5,60.8,29.91,NNW,344,0.0,2.0,69,0.00,,---,0.00,0.00,VWS V14.00,2013-06-03 02:08:00,
2013-06-02 21:12:00,71.1,60.0,29.91,NNW,344,0.0,2.0,68,0.00,,---,0.00,0.00,VWS V14.00,2013-06-03 02:12:00,
2013-06-02 21:16:00,70.9,60.2,29.91,NNW,344,0.0,2.0,69,0.00,,---,0.00,0.00,VWS V14.00,2013-06-03 02:16:00,
2013-06-02 21:20:00,70.8,59.7,29.91,NNW,344,0.0,2.0,68,0.00,,---,0.00,0.00,VWS V14.00,2013-06-03 02:20:00,
2013-06-02 21:24:00,70.8,60.1,29.91,NNW,346,0.0,2.0,69,0.00,,---,0.00,0.00,VWS V14.00,2013-06-03 02:24:00,
2013-06-02 21:28:00,70.9,60.2,29.91,NNW,346,0.0,2.0,69,0.00,,---,0.00,0.00,VWS V14.00,2013-06-03 02:28:00,
2013-06-02 21:30:00,70.8,60.1,29.91,NNW,346,0.0,2.0,69,0.00,,---,0.00,0.00,VWS V14.00,2013-06-03 02:30:00,
2013-06-02 21:32:00,70.8,60.1,29.91,NNW,346,0.0,0.0,69,0.00,,---,0.00,0.00,VWS V14.00,2013-06-03 02:32:00,
2013-06-02 21:36:00,70.7,60.0,29.91,NNW,346,0.0,0.0,69,0.00,,---,0.00,0.00,VWS V14.00,2013-06-03 02:36:00,
2013-06-02 21:40:00,70.7,60.5,29.91,NNW,346,0.0,0.0,70,0.00,,---,0.00,0.00,VWS V14.00,2013-06-03 02:40:00,
2013-06-02 21:44:00,70.7,60.0,29.91,NNW,346,0.0,1.0,69,0.00,,---,0.00,0.00,VWS V14.00,2013-06-03 02:44:00,
2013-06-02 21:48:00,70.7,60.0,29.91,NNW,346,0.0,1.0,69,0.00,,---,0.00,0.00,VWS V14.00,2013-06-03 02:48:00,
2013-06-02 21:53:00,70.6,60.8,29.91,NNW,346,0.0,1.0,71,0.00,,---,0.00,0.00,VWS V14.00,2013-06-03 02:53:00,
2013-06-02 21:57:00,70.4,60.6,29.91,NNW,344,0.0,2.0,71,0.00,,---,0.00,0.00,VWS V14.00,2013-06-03 02:57:00,
2013-06-02 22:00:00,70.4,60.6,29.91,NNW,345,0.0,2.0,71,0.00,,---,0.00,0.00,VWS V14.00,2013-06-03 03:00:00,
2013-06-02 22:01:00,70.4,60.6,29.91,NNW,345,0.0,0.0,71,0.00,,---,0.00,0.00,VWS V14.00,2013-06-03 03:01:00,
2013-06-02 22:05:00,70.6,60.3,29.91,NNW,343,0.0,4.0,70,0.00,,---,0.00,0.00,VWS V14.00,2013-06-03 03:05:00,
2013-06-02 22:09:00,70.7,60.5,29.91,NNW,344,0.0,4.0,70,0.00,,---,0.00,0.00,VWS V14.00,2013-06-03 03:09:00,
2013-06-02 22:13:00,70.6,60.3,29.91,NNW,344,0.0,4.0,70,0.00,,---,0.00,0.00,VWS V14.00,2013-06-03 03:13:00,
2013-06-02 22:17:00,70.6,60.8,29.90,NNW,342,4.0,4.0,71,0.00,,---,0.00,0.00,VWS V14.00,2013-06-03 03:17:00,
2013-06-02 22:21:00,70.4,60.6,29.90,NNW,343,0.0,4.0,71,0.00,,---,0.00,0.00,VWS V14.00,2013-06-03 03:21:00,
2013-06-02 22:25:00,70.3,60.5,29.90,NNW,344,2.0,4.0,71,0.00,,---,0.00,0.00,VWS V14.00,2013-06-03 03:25:00,
2013-06-02 22:29:00,70.4,60.6,29.90,North,349,1.0,4.0,71,0.00,,---,0.00,0.00,VWS V14.00,2013-06-03 03:29:00,
2013-06-02 22:30:00,70.3,60.5,29.90,North,349,2.0,4.0,71,0.00,,---,0.00,0.00,VWS V14.00,2013-06-03 03:30:00,
2013-06-02 22:33:00,70.3,60.1,29.90,NNW,343,3.0,3.0,70,0.00,,---,0.00,0.00,VWS V14.00,2013-06-03 03:33:00,
2013-06-02 22:37:00,70.3,60.1,29.90,North,9,1.0,4.0,70,0.00,,---,0.00,0.00,VWS V14.00,2013-06-03 03:37:00,
2013-06-02 22:41:00,70.3,60.1,29.90,NNW,336,1.0,4.0,70,0.00,,---,0.00,0.00,VWS V14.00,2013-06-03 03:41:00,
2013-06-02 22:46:00,70.2,60.0,29.91,NNW,338,3.0,5.0,70,0.00,,---,0.00,0.00,VWS V14.00,2013-06-03 03:46:00,
2013-06-02 22:49:00,70.1,59.9,29.91,NNW,340,2.0,5.0,70,0.00,,---,0.00,0.00,VWS V14.00,2013-06-03 03:49:00,
2013-06-02 22:54:00,70.0,60.2,29.91,NNW,346,0.0,5.0,71,0.00,,---,0.00,0.00,VWS V14.00,2013-06-03 03:54:00,
2013-06-02 22:58:00,70.0,59.8,29.91,NNW,342,0.0,5.0,70,0.00,,---,0.00,0.00,VWS V14.00,2013-06-03 03:58:00,
2013-06-02 23:00:00,70.0,59.8,29.91,NNW,344,3.0,5.0,70,0.00,,---,0.00,0.00,VWS V14.00,2013-06-03 04:00:00,
2013-06-02 23:02:00,70.0,60.2,29.91,NNW,342,4.0,4.0,71,0.00,,---,0.00,0.00,VWS V14.00,2013-06-03 04:02:00,
2013-06-02 23:06:00,69.9,60.1,29.91,NNW,344,0.0,5.0,71,0.00,,---,0.00,0.00,VWS V14.00,2013-06-03 04:06:00,
2013-06-02 23:10:00,69.7,59.9,29.91,North,355,2.0,5.0,71,0.00,,---,0.00,0.00,VWS V14.00,2013-06-03 04:10:00,
2013-06-02 23:14:00,69.6,60.2,29.91,NNW,327,0.0,5.0,72,0.00,,---,0.00,0.00,VWS V14.00,2013-06-03 04:14:00,
2013-06-02 23:18:00,69.4,60.0,29.90,NW,325,3.0,5.0,72,0.00,,---,0.00,0.00,VWS V14.00,2013-06-03 04:18:00,
2013-06-02 23:22:00,69.2,60.2,29.90,NNW,336,3.0,5.0,73,0.00,,---,0.00,0.00,VWS V14.00,2013-06-03 04:22:00,
2013-06-02 23:27:00,69.2,60.2,29.90,NNW,337,0.0,5.0,73,0.00,,---,0.00,0.00,VWS V14.00,2013-06-03 04:27:00,
2013-06-02 23:30:00,69.2,60.6,29.90,NNW,336,0.0,5.0,74,0.00,,---,0.00,0.00,VWS V14.00,2013-06-03 04:30:00,
2013-06-02 23:31:00,69.2,60.6,29.90,NNW,336,0.0,0.0,74,0.00,,---,0.00,0.00,VWS V14.00,2013-06-03 04:31:00,
2013-06-02 23:35:00,69.1,60.5,29.90,NNW,338,2.0,2.0,74,0.00,,---,0.00,0.00,VWS V14.00,2013-06-03 04:35:00,
2013-06-02 23:39:00,69.0,60.4,29.90,NNW,341,0.0,3.0,74,0.00,,---,0.00,0.00,VWS V14.00,2013-06-03 04:39:00,
2013-06-02 23:43:00,69.0,60.4,29.90,NNW,336,1.0,4.0,74,0.00,,---,0.00,0.00,VWS V14.00,2013-06-03 04:43:00,
2013-06-02 23:47:00,69.0,60.4,29.91,NNW,331,1.0,4.0,74,0.00,,---,0.00,0.00,VWS V14.00,2013-06-03 04:47:00,
2013-06-02 23:51:00,68.9,60.3,29.91,NNW,333,1.0,4.0,74,0.00,,---,0.00,0.00,VWS V14.00,2013-06-03 04:51:00,
2013-06-02 23:55:00,68.8,60.6,29.91,NNW,331,3.0,4.0,75,0.00,,---,0.00,0.00,VWS V14.00,2013-06-03 04:55:00,
2013-06-02 23:59:00,68.6,60.4,29.92,NW,326,3.0,4.0,75,0.00,,---,0.00,0.00,VWS V14.00,2013-06-03 04:59:00,